Hourly Data Report for September 25, 2017

All times are specified in Local Standard Time (LST). Add 1 hour to adjust for Daylight Saving Time where and when it is observed.

NORTH CAPE
PRINCE EDWARD ISLAND

47°03'29.000" N
63°59'55.000" W
7.60 m
8300516
71987
WNE

Download Data

Hourly Data (September 2017)
Hourly Data Report for September 25, 2017
Temp Definition
°C
Dew Point Temp Definition
°C
Rel Hum Definition
%
Wind Dir Definition
10's deg

Wind Spd Definition
km/h
Visibility Definition
km
Stn Press Definition
kPa
Hmdx Definition


Wind Chill Definition


Weather Definition


TIME
00:00 14.2 12.6 90 35 19   101.64     LegendNANA
01:00 14.0 12.6 91 35 17   101.65     LegendNANA
02:00 13.7 12.4 92 36 16   101.66     LegendNANA
03:00 13.5 12.2 92 2 23   101.73     LegendNANA
04:00 13.0 11.5 90 5 18   101.73     LegendNANA
05:00 13.3 11.4 88 4 18   101.75     LegendNANA
06:00 13.2 11.1 87 5 13   101.79     LegendNANA
07:00 13.7 11.0 83 4 15   101.86     LegendNANA
08:00 14.3 11.2 82 6 11   101.82     LegendNANA
09:00 15.8 11.8 77 11 6   101.88     LegendNANA
10:00 16.1 11.9 76 11 7   101.87     LegendNANA
11:00 17.3 12.5 74 12 10   101.86     LegendNANA
12:00 17.3 12.5 74 14 14   101.82     LegendNANA
13:00 17.9 12.8 72 14 18   101.72     LegendNANA
14:00 18.1 13.3 74 14 16   101.63     LegendNANA
15:00 18.5 13.8 74 15 15   101.54     LegendNANA
16:00 18.2 13.7 75 15 15   101.49     LegendNANA
17:00 17.7 14.1 79 16 16   101.40     LegendNANA
18:00 16.9 14.4 85 16 20   101.34     LegendNANA
19:00 16.8 14.6 87 15 17   101.30     LegendNANA
20:00 18.4 15.3 82 18 15   101.23     LegendNANA
21:00 20.6 16.5 77 21 23   101.16 26   LegendNANA
22:00 21.1 16.6 76 22 33   101.10 26   LegendNANA
23:00 20.2 16.2 78 22 33   101.04 25   LegendNANA

Notes on Data Quality.

Legend

  • E = Estimated
  • M = Missing
  • NA = Not Available
  • ‡ = Partner data that is not subject to review by the National Climate Archives
Date modified: